sat.trackr.live / text

‹ back to catalog

COSMOS 2467

NORAD 37152 · 2010-043A

PAYLOAD ACTIVE UNKNOWN

§ Identity

Operator
Country
CIS
Launch date
2010-09-08
Launch site
PLMSC
Launch vehicle
Mass (kg)
RCS (m²)
1.65

External: N2YO · Heavens-Above · Gunter

§ Orbital elements

Epoch: 2026-05-25T01:12:48.898080Z

Period
115.85 min
Inclination
82.4566°
Eccentricity
0.0001183
Mean motion
12.42983860 rev/d
Perigee alt
1,493.0 km
Apogee alt
1,494.9 km
Semi-major
7,872.1 km
B*
9.4756e-5
RAAN
79.4940°
Arg perigee
112.0615°
Mean anomaly
259.9040°
Rev number
71,263

§ Raw data

COSMOS 24671 37152U 10043A   26145.05056595  .00000023  00000+0  94756-4 0  99982 37152  82.4566  79.4940 0001183 112.0615 259.9040 12.42983860712634

JSON: /api/v1/satellites/37152 · /tle

For live sub-satellite position, see the globe view (requires WebGL).

§ Visibility from observer

Set your observer location to see the next 7 days of passes ≥ 10°. The values pass through the URL so the page stays shareable.

No JS? Fill the form by hand. The geolocation button needs JavaScript.